H1 CPF 2 NER 2024 2 27 9 058 01 glonass147 H2 2311401 9147 57517 2024 2 27 0 0 0 2024 3 1 23 45 0 900 1 1 0 0 0 1 H9 10 0 60367 0.00000 0 7730015.773 7825388.956 23039872.083 10 0 60367 900.00000 0 6226390.085 10197324.012 22564058.760 10 0 60367 1800.00000 0 4942533.083 12598603.937 21651286.291 10 0 60367 2700.00000 0 3897318.983 14962884.197 20319257.846 10 0 60367 3600.00000 0 3097219.081 17222699.305 18593766.108 10 0 60367 4500.00000 0 2536234.710 19312106.992 16508199.716 10 0 60367 5400.00000 0 2196360.922 21169285.266 14102905.772 10 0 60367 6300.00000 0 2048560.892 22738975.648 11424419.698 10 0 60367 7200.00000 0 2054209.947 23974671.850 8524576.176 10 0 60367 8100.00000 0 2166948.695 24840463.297 5459517.157 10 0 60367 9000.00000 0 2334867.592 25312456.750 2288615.004 10 0 60367 9900.00000 0 2502931.268 25379716.369 -926669.294 10 0 60367 10800.00000 0 2615540.642 25044682.346 -4123971.379 10 0 60367 11700.00000 0 2619124.656 24323049.676 -7241229.731 10 0 60367 12600.00000 0 2464651.892 23243111.138 -10217889.492 10 0 60367 13500.00000 0 2109955.227 21844590.935 -12996080.437 10 0 60367 14400.00000 0 1521770.220 20177016.841 -15521745.922 10 0 60367 15300.00000 0 677399.623 18297698.260 -17745700.354 10 0 60367 16200.00000 0 -434068.060 16269394.232 -19624594.069 10 0 60367 17100.00000 0 -1811039.438 14157768.680 -21121766.261 10 0 60367 18000.00000 0 -3439229.043 12028739.291 -22207968.694 10 0 60367 18900.00000 0 -5292014.185 9945831.050 -22861945.484 10 0 60367 19800.00000 0 -7331319.048 7967645.328 -23070857.035 10 0 60367 20700.00000 0 -9508992.791 6145550.724 -22830539.252 10 0 60367 21600.00000 0 -11768625.369 4521692.515 -22145592.373 10 0 60367 22500.00000 0 -14047726.133 3127404.176 -21029297.147 10 0 60367 23400.00000 0 -16280174.562 1982087.488 -19503359.495 10 0 60367 24300.00000 0 -18398840.764 1092607.857 -17597488.274 10 0 60367 25200.00000 0 -20338265.811 453229.590 -15348814.155 10 0 60367 26100.00000 0 -22037289.181 46092.908 -12801160.979 10 0 60367 27000.00000 0 -23441512.573 -157788.718 -10004184.099 10 0 60367 27900.00000 0 -24505496.179 -197054.524 -7012393.018 10 0 60367 28800.00000 0 -25194594.759 -118109.774 -3884078.279 10 0 60367 29700.00000 0 -25486356.256 27091.927 -680164.521 10 0 60367 30600.00000 0 -25371424.382 183501.543 2536986.742 10 0 60367 31500.00000 0 -24853907.830 295557.170 5704800.100 10 0 60367 32400.00000 0 -23951201.556 309785.350 8761710.059 10 0 60367 33300.00000 0 -22693268.906 177309.870 11648361.060 10 0 60367 34200.00000 0 -21121416.123 -143838.884 14308759.808 10 0 60367 35100.00000 0 -19286612.040 -686711.978 16691357.457 10 0 60367 36000.00000 0 -17247424.555 -1473812.349 18750041.019 10 0 60367 36900.00000 0 -15067661.105 -2515915.990 20445015.550 10 0 60367 37800.00000 0 -12813812.088 -3811393.177 21743561.156 10 0 60367 38700.00000 0 -10552403.741 -5346057.858 22620651.610 10 0 60367 39600.00000 0 -8347370.074 -7093551.364 23059424.064 10 0 60367 40500.00000 0 -6257552.011 -9016244.472 23051492.247 10 0 60367 41400.00000 0 -4334426.113 -11066620.618 22597098.330 10 0 60367 42300.00000 0 -2620155.458 -13189083.355 21705101.470 10 0 60367 43200.00000 0 -1146041.711 -15322113.895 20392803.729 10 0 60367 44100.00000 0 68559.140 -17400690.307 18685616.828 10 0 60367 45000.00000 0 1016813.915 -19358869.130 16616575.817 10 0 60367 45900.00000 0 1704459.579 -21132423.434 14225708.292 10 0 60367 46800.00000 0 2149319.780 -22661428.784 11559270.366 10 0 60367 47700.00000 0 2380311.417 -23892690.328 8668862.990 10 0 60367 48600.00000 0 2435983.117 -24781910.426 5610444.508 10 0 60367 49500.00000 0 2362646.934 -25295506.510 2443257.424 10 0 60367 50400.00000 0 2212181.712 -25412002.927 -771310.757 10 0 60367 51300.00000 0 2039600.419 -25122937.880 -3970911.256 10 0 60367 52200.00000 0 1900483.991 -24433246.512 -7093439.778 10 0 60367 53100.00000 0 1848390.167 -23361102.819 -10078241.036 10 0 60367 54000.00000 0 1932347.220 -21937225.718 -12867288.544 10 0 60367 54900.00000 0 2194539.288 -20203676.965 -15406316.466 10 0 60367 55800.00000 0 2668282.279 -18212200.095 -17645881.031 10 0 60367 56700.00000 0 3376377.324 -16022168.905 -19542330.331 10 0 60367 57600.00000 0 4329913.075 -13698230.542 -21058663.045 10 0 60367 58500.00000 0 5527569.307 -11307741.310 -22165258.719 10 0 60367 59400.00000 0 6955453.234 -8918102.133 -22840464.770 10 0 60367 60300.00000 0 8587477.436 -6594104.928 -23071028.174 10 0 60367 61200.00000 0 10386265.394 -4395400.920 -22852362.765 10 0 60367 62100.00000 0 12304548.130 -2374196.764 -22188646.394 10 0 60367 63000.00000 0 14286994.624 -573274.888 -21092745.428 10 0 60367 63900.00000 0 16272399.924 975579.178 -19585967.615 10 0 60367 64800.00000 0 18196139.558 2252676.907 -17697647.728 10 0 60367 65700.00000 0 19992787.196 3251008.767 -15464573.847 10 0 60367 66600.00000 0 21598785.267 3976284.550 -12930265.503 10 0 60367 67500.00000 0 22955055.793 4446431.583 -10144118.022 10 0 60367 68400.00000 0 24009440.996 4690573.532 -7160430.295 10 0 60367 69300.00000 0 24718870.411 4747534.695 -4037335.789 10 0 60367 70200.00000 0 25051162.870 4663934.947 -835658.667 10 0 60367 71100.00000 0 24986387.371 4491957.932 2382281.544 10 0 60367 72000.00000 0 24517725.717 4286888.885 5553892.206 10 0 60367 72900.00000 0 23651801.209 4104528.042 8617531.856 10 0 60367 73800.00000 0 22408460.407 3998590.520 11513711.890 10 0 60367 74700.00000 0 20820018.220 4018203.655 14186251.672 10 0 60367 75600.00000 0 18929999.142 4205608.175 16583364.571 10 0 60367 76500.00000 0 16791428.457 4594160.361 18658654.182 10 0 60367 77400.00000 0 14464745.718 5206719.268 20372002.155 10 0 60367 78300.00000 0 12015428.104 6054486.413 21690331.582 10 0 60367 79200.00000 0 9511422.674 7136346.200 22588232.557 10 0 60367 80100.00000 0 7020493.926 8438734.274 23048439.284 10 0 60367 81000.00000 0 4607595.846 9936039.086 23062150.982 10 0 60367 81900.00000 0 2332376.119 11591519.939 22629191.627 10 0 60367 82800.00000 0 246914.324 13358703.605 21758006.410 10 0 60367 83700.00000 0 -1606213.975 15183202.024 20465495.492 10 0 60367 84600.00000 0 -3195468.863 17004876.415 18776688.371 10 0 60367 85500.00000 0 -4501411.595 18760258.848 16724264.808 10 0 60368 0.00000 0 -5517261.199 20385131.557 14347931.059 10 0 60368 900.00000 0 -6248920.688 21817158.549 11693661.147 10 0 60368 1800.00000 0 -6714471.364 22998458.577 8812819.901 10 0 60368 2700.00000 0 -6943158.638 23878015.607 5761179.315 10 0 60368 3600.00000 0 -6973910.685 24413824.102 2597849.178 10 0 60368 4500.00000 0 -6853452.662 24574680.044 -615859.403 10 0 60368 5400.00000 0 -6634095.609 24341541.902 -3817616.129 10 0 60368 6300.00000 0 -6371293.074 23708403.495 -6945276.777 10 0 60368 7200.00000 0 -6121068.529 22682640.791 -9938088.353 10 0 60368 8100.00000 0 -5937422.453 21284816.577 -12737870.639 10 0 60368 9000.00000 0 -5869829.093 19547949.531 -15290150.904 10 0 60368 9900.00000 0 -5960929.523 17516276.782 -17545229.241 10 0 60368 10800.00000 0 -6244519.596 15243560.330 -19459153.262 10 0 60368 11700.00000 0 -6743919.163 12791006.983 -20994582.620 10 0 60368 12600.00000 0 -7470793.034 10224887.905 -22121525.859 10 0 60368 13500.00000 0 -8424475.169 7613956.584 -22817934.640 10 0 60368 14400.00000 0 -9591826.385 5026772.687 -23070143.134 10 0 60368 15300.00000 0 -10947633.257 2529043.398 -22873143.400 10 0 60368 16200.00000 0 -12455532.989 181093.189 -22230690.799 10 0 60368 17100.00000 0 -14069426.558 -1964432.321 -21155236.804 10 0 60368 18000.00000 0 -15735321.599 -3864532.467 -19667690.039 10 0 60368 18900.00000 0 -17393528.003 -5487405.630 -17797009.816 10 0 60368 19800.00000 0 -18981113.971 -6813526.659 -15579639.868 10 0 60368 20700.00000 0 -20434518.894 -7836203.199 -13058793.335 10 0 60368 21600.00000 0 -21692212.509 -8561588.648 -10283603.194 10 0 60368 22500.00000 0 -22697287.610 -9008152.659 -7308155.230 10 0 60368 23400.00000 0 -23399876.285 -9205633.215 -4190423.232 10 0 60368 24300.00000 0 -23759287.156 -9193516.480 -991128.208 10 0 60368 25200.00000 0 -23745773.064 -9019110.749 2227455.022 10 0 60368 26100.00000 0 -23341854.494 -8735297.971 5402719.331 10 0 60368 27000.00000 0 -22543143.178 -8398059.909 8472950.032 10 0 60368 27900.00000 0 -21358631.652 -8063885.214 11378528.172 10 0 60368 28800.00000 0 -19810437.361 -7787168.274 14063088.377 10 0 60368 29700.00000 0 -17933012.922 -7617710.573 16474608.664 10 0 60368 30600.00000 0 -15771856.544 -7598430.299 18566411.392 10 0 60368 31500.00000 0 -13381777.295 -7763376.668 20298056.661 10 0 60368 32400.00000 0 -10824788.120 -8136132.054 21636112.007 10 0 60368 33300.00000 0 -8167714.451 -8728668.452 22554784.877 10 0 60368 34200.00000 0 -5479617.528 -9540705.518 23036407.116 10 0 60368 35100.00000 0 -2829138.559 -10559596.503 23071763.580 10 0 60368 36000.00000 0 -281872.605 -11760746.499 22660259.800 10 0 60368 36900.00000 0 2102120.584 -13108545.480 21809926.385 10 0 60368 37800.00000 0 4270567.480 -14557777.537 20537260.662 10 0 60368 38700.00000 0 6180902.081 -16055448.186 18866908.685 10 0 60368 39600.00000 0 7801779.745 -17542954.455 16831193.439 10 0 60368 40500.00000 0 9114122.357 -18958508.303 14469497.663 10 0 60368 41400.00000 0 10111652.750 -20239713.354 11827512.169 10 0 60368 42300.00000 0 10800897.081 -21326188.257 8956363.089 10 0 60368 43200.00000 0 11200655.774 -22162127.735 5911633.696 10 0 60368 44100.00000 0 11340965.464 -22698694.515 2752298.572 10 0 60368 45000.00000 0 11261595.558 -22896141.819 -460410.147 10 0 60368 45900.00000 0 11010142.461 -22725576.922 -3664183.231 10 0 60368 46800.00000 0 10639801.519 -22170290.790 -6796839.079 10 0 60368 47700.00000 0 10206910.456 -21226596.617 -9797529.463 10 0 60368 48600.00000 0 9768367.983 -19904140.416 -12607922.809 10 0 60368 49500.00000 0 9379036.789 -18225668.797 -15173341.741 10 0 60368 50400.00000 0 9089241.133 -16226261.792 -17443832.301 10 0 60368 51300.00000 0 8942465.500 -13952061.092 -19375143.506 10 0 60368 52200.00000 0 8973352.559 -11458545.319 -20929597.623 10 0 60368 53100.00000 0 9206086.207 -8808423.126 -22076833.531 10 0 60368 54000.00000 0 9653229.341 -6069231.155 -22794408.129 10 0 60368 54900.00000 0 10315066.845 -3310736.349 -23068243.432 10 0 60368 55800.00000 0 11179482.958 -602250.664 -22892910.018 10 0 60368 56700.00000 0 12222379.501 1990030.049 -22271740.715 10 0 60368 57600.00000 0 13408618.494 4405552.066 -21216771.741 10 0 60368 58500.00000 0 14693450.247 6591689.219 -19748511.936 10 0 60368 59400.00000 0 16024367.258 8505692.440 -17895544.212 10 0 60368 60300.00000 0 17343305.905 10116222.110 -15693966.718 10 0 60368 61200.00000 0 18589102.858 11404399.567 -13186684.666 10 0 60368 62100.00000 0 19700102.049 12364334.540 -10422566.837 10 0 60368 63000.00000 0 20616801.452 13003107.559 -7455483.749 10 0 60368 63900.00000 0 21284427.034 13340209.644 -4343247.074 10 0 60368 64800.00000 0 21655324.388 13406464.740 -1146471.991 10 0 60368 65700.00000 0 21691066.308 13242482.437 2072614.213 10 0 60368 66600.00000 0 21364186.892 12896708.423 5251392.814 10 0 60368 67500.00000 0 20659468.831 12423157.124 8328078.768 10 0 60368 68400.00000 0 19574729.746 11878924.163 11242925.548 10 0 60368 69300.00000 0 18121074.895 11321585.229 13939385.659 10 0 60368 70200.00000 0 16322606.216 10806592.199 16365204.192 10 0 60368 71100.00000 0 14215600.581 10384776.881 18473424.472 10 0 60368 72000.00000 0 11847192.268 10100067.579 20223287.021 10 0 60368 72900.00000 0 9273615.100 9987514.139 21581005.533 10 0 60368 73800.00000 0 6558077.590 10071703.729 22520406.227 10 0 60368 74700.00000 0 3768359.210 10365632.896 23023419.674 10 0 60368 75600.00000 0 974226.838 10870082.239 23080417.077 10 0 60368 76500.00000 0 -1755222.626 11573519.115 22690385.786 10 0 60368 77400.00000 0 -4354184.874 12452531.891 21860941.620 10 0 60368 78300.00000 0 -6762629.176 13472777.507 20608178.357 10 0 60368 79200.00000 0 -8928536.888 14590402.954 18956357.385 10 0 60368 80100.00000 0 -10809806.498 15753881.892 16937443.236 10 0 60368 81000.00000 0 -12375747.937 16906190.477 14590493.264 10 0 60368 81900.00000 0 -13608105.468 17987232.419 11960912.249 10 0 60368 82800.00000 0 -14501567.685 18936412.736 9099585.201 10 0 60368 83700.00000 0 -15063744.112 19695253.206 6061903.912 10 0 60368 84600.00000 0 -15314609.759 20209940.385 2906704.930 10 0 60368 85500.00000 0 -15285441.011 20433699.349 -304861.422 10 0 60369 0.00000 0 -15017287.421 20328893.150 -3510509.512 10 0 60369 900.00000 0 -14559043.235 19868758.836 -6648023.693 10 0 60369 1800.00000 0 -13965200.019 19038705.964 -9656462.868 10 0 60369 2700.00000 0 -13293374.467 17837121.261 -12477346.606 10 0 60369 3600.00000 0 -12601715.974 16275643.718 -15055795.184 10 0 60369 4500.00000 0 -11946303.533 14378896.554 -17341602.645 10 0 60369 5400.00000 0 -11378642.267 12183685.192 -19290221.191 10 0 60369 6300.00000 0 -10943365.982 9737692.885 -20863637.179 10 0 60369 7200.00000 0 -10676243.578 7097726.869 -22031121.002 10 0 60369 8100.00000 0 -10602574.484 4327586.887 -22769835.671 10 0 60369 9000.00000 0 -10736041.917 1495643.986 -23065291.586 10 0 60369 9900.00000 0 -11078073.451 -1327770.093 -22911638.039 10 0 60369 10800.00000 0 -11617736.915 -4073054.534 -22311785.158 10 0 60369 11700.00000 0 -12332176.905 -6674000.011 -21277353.343 10 0 60369 12600.00000 0 -13187574.152 -9070307.252 -19828450.699 10 0 60369 13500.00000 0 -14140587.649 -11209858.497 -17993282.389 10 0 60369 14400.00000 0 -15140218.729 -13050647.030 -15807599.288 10 0 60369 15300.00000 0 -16130018.120 -14562284.330 -13313996.689 10 0 60369 16200.00000 0 -17050542.129 -15727022.251 -10561076.957 10 0 60369 17100.00000 0 -17841953.366 -16540248.253 -7602492.961 10 0 60369 18000.00000 0 -18446655.060 -17010434.140 -4495891.766 10 0 60369 18900.00000 0 -18811846.572 -17158542.059 -1301780.161 10 0 60369 19800.00000 0 -18891891.106 -17016914.721 1917664.704 10 0 60369 20700.00000 0 -18650394.820 -16627698.703 5099815.156 10 0 60369 21600.00000 0 -18061908.988 -16040869.451 8182818.455 10 0 60369 22500.00000 0 -17113183.233 -15311943.352 11106803.142 10 0 60369 23400.00000 0 -15803917.113 -14499475.062 13815042.187 10 0 60369 24300.00000 0 -14146978.764 -13662446.973 16255050.204 10 0 60369 25200.00000 0 -12168081.888 -12857661.538 18379593.728 10 0 60369 26100.00000 0 -9904935.084 -12137246.486 20147595.653 10 0 60369 27000.00000 0 -7405899.412 -11546377.503 21524917.430 10 0 60369 27900.00000 0 -4728210.258 -11121313.257 22485005.246 10 0 60369 28800.00000 0 -1935837.266 -10887824.138 23009389.168 10 0 60369 29700.00000 0 902929.403 -10860079.338 23088027.088 10 0 60369 30600.00000 0 3718067.453 -11040037.684 22719488.106 10 0 60369 31500.00000 0 6440479.550 -11417366.734 21910972.809 10 0 60369 32400.00000 0 9004610.806 -11969892.850 20678170.619 10 0 60369 33300.00000 0 11350920.046 -12664563.153 19044957.144 10 0 60369 34200.00000 0 13428104.283 -13458879.267 17042937.034 10 0 60369 35100.00000 0 15194985.838 -14302743.317 14710840.529 10 0 60369 36000.00000 0 16621985.219 -15140639.646 12093784.348 10 0 60369 36900.00000 0 17692119.614 -15914061.621 9242410.051 10 0 60369 37800.00000 0 18401486.173 -16564082.561 6211915.366 10 0 60369 38700.00000 0 18759210.329 -17033963.430 3060995.994 10 0 60369 39600.00000 0 18786861.407 -17271687.974 -149282.502 10 0 60369 40500.00000 0 18517359.866 -17232318.558 -3356661.660 10 0 60369 41400.00000 0 17993421.747 -16880072.941 -6498893.580 10 0 60369 42300.00000 0 17265605.359 -16190033.500 -9514947.690 10 0 60369 43200.00000 0 16390042.092 -15149415.420 -12346197.318 10 0 60369 44100.00000 0 15425946.742 -13758338.634 -14937562.767 10 0 60369 45000.00000 0 14433012.262 -12030068.925 -17238588.185 10 0 60369 45900.00000 0 13468798.948 -9990715.825 -19204430.764 10 0 60369 46800.00000 0 12586228.536 -7678397.763 -20796742.438 10 0 60369 47700.00000 0 11831289.430 -5141907.382 -21984426.266 10 0 60369 48600.00000 0 11241050.523 -2438931.055 -22744252.145 10 0 60369 49500.00000 0 10842068.123 366104.493 -23061319.278 10 0 60369 50400.00000 0 10649253.943 3204469.630 -22929355.716 10 0 60369 51300.00000 0 10665252.621 6005752.363 -22350848.569 10 0 60369 52200.00000 0 10880355.641 8700553.119 -21337001.786 10 0 60369 53100.00000 0 11272955.704 11223141.460 -19907521.783 10 0 60369 54000.00000 0 11810522.554 13513963.828 -18090234.743 10 0 60369 54900.00000 0 12451058.953 15521897.581 -15920542.760 10 0 60369 55800.00000 0 13144974.876 17206157.047 -13440729.430 10 0 60369 56700.00000 0 13837299.995 18537772.043 -10699128.656 10 0 60369 57600.00000 0 14470139.924 19500577.437 -7749173.360 10 0 60369 58500.00000 0 14985271.176 20091673.063 -4648343.467 10 0 60369 59400.00000 0 15326763.817 20321335.953 -1457034.670 10 0 60369 60300.00000 0 15443519.667 20212390.220 1762628.839 10 0 60369 61200.00000 0 15291617.648 19799062.975 4948013.280 10 0 60369 62100.00000 0 14836366.377 19125376.571 8037201.009 10 0 60369 63000.00000 0 14053976.786 18243146.904 10970198.299 10 0 60369 63900.00000 0 12932784.062 17209673.965 13690101.072 10 0 60369 64800.00000 0 11473967.515 16085223.396 16144195.737 10 0 60369 65700.00000 0 9691738.375 14930406.026 18284974.085 10 0 60369 66600.00000 0 7612987.976 13803566.055 20071043.187 10 0 60369 67500.00000 0 5276411.312 12758287.417 21467913.789 10 0 60369 68400.00000 0 2731142.624 11841122.305 22448653.304 10 0 60369 69300.00000 0 34959.687 11089635.947 22994392.230 10 0 60369 70200.00000 0 -2747869.134 10530848.114 23094675.708 10 0 60369 71100.00000 0 -5549006.605 10180135.106 22747654.733 10 0 60369 72000.00000 0 -8298637.989 10040636.707 21960114.328 10 0 60369 72900.00000 0 -10928126.251 10103191.756 20747338.749 10 0 60369 73800.00000 0 -13372622.852 10346804.201 19132816.493 10 0 60369 74700.00000 0 -15573527.686 10739619.753 17147790.529 10 0 60369 75600.00000 0 -17480697.842 11240372.265 14830661.762 10 0 60369 76500.00000 0 -19054314.941 11800239.583 12226256.296 10 0 60369 77400.00000 0 -20266334.536 12365031.661 9384969.469 10 0 60369 78300.00000 0 -21101457.999 12877619.723 6361802.025 10 0 60369 79200.00000 0 -21557586.743 13280505.014 3215305.883 10 0 60369 80100.00000 0 -21645739.821 13518419.454 6458.927 10 0 60369 81000.00000 0 -21389438.137 13540848.728 -3202510.103 10 0 60369 81900.00000 0 -20823580.645 13304371.157 -6349324.375 10 0 60369 82800.00000 0 -19992859.211 12774712.913 -9372866.168 10 0 60369 83700.00000 0 -18949778.251 11928431.643 -12214365.027 10 0 60369 84600.00000 0 -17752362.044 10754155.870 -14818543.540 10 0 60369 85500.00000 0 -16461645.922 9253325.923 -17134697.963 10 0 60370 0.00000 0 -15139057.034 7440403.164 -19117692.025 10 0 60370 900.00000 0 -13843794.336 5342535.340 -20728844.956 10 0 60370 1800.00000 0 -12630320.195 2998692.312 -21936693.276 10 0 60370 2700.00000 0 -11546067.275 458303.044 -22717614.386 10 0 60370 3600.00000 0 -10629459.528 -2220548.596 -23056296.509 10 0 60370 4500.00000 0 -9908330.415 -4973296.153 -22946046.287 10 0 60370 5400.00000 0 -9398805.598 -7731341.220 -22388927.279 10 0 60370 6300.00000 0 -9104697.485 -10424680.749 -21395726.061 10 0 60370 7200.00000 0 -9017437.394 -12984601.662 -19985746.106 10 0 60370 8100.00000 0 -9116548.110 -15346330.304 -18186433.038 10 0 60370 9000.00000 0 -9370636.611 -17451525.955 -16032838.316 10 0 60370 9900.00000 0 -9738864.444 -19250513.931 -13566931.776 10 0 60370 10800.00000 0 -10172832.726 -20704164.796 -10836776.647 10 0 60370 11700.00000 0 -10618800.923 -21785341.059 -7895583.606 10 0 60370 12600.00000 0 -11020144.204 -22479851.133 -4800663.112 10 0 60370 13500.00000 0 -11319943.948 -22786871.356 -1612297.424 10 0 60370 14400.00000 0 -11463600.320 -22718819.537 1607444.543 10 0 60370 15300.00000 0 -11401355.067 -22300686.954 4795925.220 10 0 60370 16200.00000 0 -11090616.749 -21568858.706 7891164.369 10 0 60370 17100.00000 0 -10497989.350 -20569474.030 10833048.306 10 0 60370 18000.00000 0 -9600918.186 -19356397.417 13564498.164 10 0 60370 18900.00000 0 -8388883.593 -17988887.494 16032574.339 10 0 60370 19800.00000 0 -6864092.241 -16529062.839 18189495.916 10 0 60370 20700.00000 0 -5041637.295 -15039271.851 19993555.975 10 0 60370 21600.00000 0 -2949120.912 -13579477.059 21409916.121 10 0 60370 22500.00000 0 -625754.976 -12204762.974 22411266.227 10 0 60370 23400.00000 0 1879022.570 -10963070.773 22978338.097 10 0 60370 24300.00000 0 4507358.629 -9893253.130 23100264.633 10 0 60370 25200.00000 0 7195148.671 -9023528.804 22774778.864 10 0 60370 26100.00000 0 9874464.580 -8370399.846 22008250.026 10 0 60370 27000.00000 0 12476147.411 -7938075.073 20815556.645 10 0 60370 27900.00000 0 14932459.202 -7718422.590 19219799.218 10 0 60370 28800.00000 0 17179685.580 -7691452.407 17251857.818 10 0 60370 29700.00000 0 19160582.824 -7826308.488 14949802.491 10 0 60370 30600.00000 0 20826569.216 -8082728.564 12358166.862 10 0 60370 31500.00000 0 22139570.671 -8412910.743 9527097.855 10 0 60370 32400.00000 0 23073444.578 -8763708.985 6511396.737 10 0 60370 33300.00000 0 23614922.821 -9079065.659 3369468.844 10 0 60370 34200.00000 0 23764034.580 -9302579.202 162201.384 10 0 60370 35100.00000 0 23533990.875 -9380098.886 -3048209.758 10 0 60370 36000.00000 0 22950535.138 -9262237.138 -6199461.956 10 0 60370 36900.00000 0 22050786.327 -8906692.830 -9230353.371 10 0 60370 37800.00000 0 20881622.444 -8280286.501 -12081972.600 10 0 60370 38700.00000 0 19497671.665 -7360620.168 -14698847.073 10 0 60370 39600.00000 0 17958994.990 -6137289.910 -17030027.400 10 0 60370 40500.00000 0 16328557.488 -4612597.998 -19030086.070 10 0 60370 41400.00000 0 14669594.250 -2801732.259 -20660010.469 10 0 60370 42300.00000 0 13042981.834 -732402.808 -21887972.175 10 0 60370 43200.00000 0 11504725.866 1556050.913 -22689956.961 10 0 60370 44100.00000 0 10103670.647 4014047.419 -23050242.578 10 0 60370 45000.00000 0 8879527.393 6583588.431 -22961714.403 10 0 60370 45900.00000 0 7861304.251 9200447.124 -22426012.212 10 0 60370 46800.00000 0 7066204.317 11796628.831 -21453504.628 10 0 60370 47700.00000 0 6499038.027 14303001.873 -20063091.235 10 0 60370 48600.00000 0 6152174.475 16651988.748 -18281835.820 10 0 60370 49500.00000 0 6006033.225 18780205.034 -16144437.608 10 0 60370 50400.00000 0 6030095.105 20630935.341 -13692550.759 10 0 60370 51300.00000 0 6184388.287 22156342.315 -10973965.630 10 0 60370 52200.00000 0 6421385.514 23319315.982 -8041668.177 10 0 60370 53100.00000 0 6688230.727 24094885.847 -4952796.687 10 0 60370 54000.00000 0 6929199.265 24471136.894 -1767517.113 10 0 60370 54900.00000 0 7088285.825 24449591.761 1452159.890 10 0 60370 55800.00000 0 7111809.111 24045044.196 4643595.955 10 0 60370 56700.00000 0 6950921.617 23284852.294 7744751.174 10 0 60370 57600.00000 0 6563917.366 22207722.927 10695394.677 10 0 60370 58500.00000 0 5918239.436 20862040.230 13438275.383 10 0 60370 59400.00000 0 4992102.204 19303809.997 15920230.002 10 0 60370 60300.00000 0 3775659.943 17594307.584 18093206.987 10 0 60370 61200.00000 0 2271672.767 15797528.847 19915187.219 10 0 60370 62100.00000 0 495642.219 13977551.185 21350984.673 10 0 60370 63000.00000 0 -1524589.032 12195914.829 22372912.889 10 0 60370 63900.00000 0 -3749756.660 10509132.939 22961305.854 10 0 60370 64800.00000 0 -6130575.292 8966433.154 23104884.730 10 0 60370 65700.00000 0 -8609562.614 7607823.092 22800964.660 10 0 60370 66600.00000 0 -11123212.119 6462558.645 22055498.720 10 0 60370 67500.00000 0 -13604425.556 5548077.065 20882958.827 10 0 60370 68400.00000 0 -15985105.688 4869437.663 19306056.093 10 0 60370 69300.00000 0 -18198803.303 4419292.097 17355305.817 10 0 60370 70200.00000 0 -20183310.196 4178384.507 15068444.848 10 0 60370 71100.00000 0 -21883091.821 4116560.016 12489711.631 10 0 60370 72000.00000 0 -23251459.501 4194239.187 9669001.690 10 0 60370 72900.00000 0 -24252392.531 4364296.693 6660913.649 10 0 60370 73800.00000 0 -24861934.504 4574265.596 3523703.049 10 0 60370 74700.00000 0 -25069105.475 4768774.803 318163.215 10 0 60370 75600.00000 0 -24876291.351 4892117.271 -2893545.933 10 0 60370 76500.00000 0 -24299093.513 4890840.621 -6049098.958 10 0 60370 77400.00000 0 -23365644.026 4716250.504 -9087212.727 10 0 60370 78300.00000 0 -22115414.203 4326720.253 -11948837.518 10 0 60370 79200.00000 0 -20597565.568 3689708.158 -14578307.997 10 0 60370 80100.00000 0 -18868911.602 2783395.636 -16924431.238 10 0 60370 81000.00000 0 -16991575.231 1597875.287 -18941490.086 10 0 60370 81900.00000 0 -15030439.884 135836.631 -20590141.770 10 0 60370 82800.00000 0 -13050500.904 -1587281.657 -21838193.610 10 0 60370 83700.00000 0 -11114228.388 -3543681.671 -22661240.115 10 0 60370 84600.00000 0 -9279052.130 -5694124.217 -23043148.429 10 0 60370 85500.00000 0 -7595074.372 -7989338.125 -22976382.048 99